Zurück zum Katalog

STARLINK-36086

AktivKommunikationVLEO
NORAD 66980·PAYLOAD·🇺🇸 United States

Gestartet Dec 8, 2025 von Cape Canaveral Space Force Station

Loading…

Nächste Überflüge (nächste 24 Stunden)

TLE

AktuellSource: CelesTrak SupGP

Epoche: Sep 15, 2026, 04:03 UTC

1 66980C 25288X   26258.16923611  .00005032  00000+0  18219-3 0  2587
2 66980  43.0047  33.6351 0002067 274.7617  54.5024 15.27586727    10

Verfolge STARLINK-36086 in Echtzeit mit AllMySat

Download on the App Store